Hourly Weather Roundup
Issued by NWS Central Illinois

Home | Current Version | Previous Version | Text Only | Print | Product List | Glossary On
Versions: 1 2 3 4 5 6 7 8 9 10 11 12 13 14 15 16 17 18 19 20 21 22 23 24 25 26 27 28 29 30 31 32 33 34 35 36 37 38 39 40 41 42 43 44 45 46 47 48 49 50
000
NZUS43 KILX 190310
HWRILX

AREA WEATHER ROUNDUP
NATIONAL WEATHER SERVICE, LINCOLN IL
900 PM CST SAT FEB 18 2017


CITY           SKY/WX    TMP DP  RH WIND       PRES   REMARKS
BLOOMINGTON    CLEAR     49  41  74 SW10      29.85R
CHAMPAIGN      CLEAR     50  45  83 SW13      29.85R
DANVILLE       LGT RAIN  50  46  84 SW9       29.83R
DECATUR        CLEAR     49  46  90 SW13      29.86R
EFFINGHAM      CLOUDY    52  51  97 S12       29.91R
FLORA          PTCLDY    49  48  95 SW7       29.91R
GALESBURG      CLEAR     41  33  74 CALM        N/A
JACKSONVILLE   CLEAR     50  42  73 S3        29.85R
LACON          CLEAR     41  34  75 CALM      29.83R
LAWRENCEVILLE  CLEAR     46  44  93 S8        29.91R
LITCHFIELD     CLEAR     46  45  99 S7        29.87R FOG
$$


CITY           SKY/WX    TMP DP  RH WIND       PRES   REMARKS
LINCOLN        CLEAR     49  42  76 S3        29.85R
MACOMB         CLEAR     47  39  74 CALM      29.85S
MATTOON        MOCLDY    49  48  97 S8        29.87R
MT CARMEL AP   CLEAR     47  45  91 S7        29.90R
OLNEY-NOBLE AP CLEAR     46  46 100 S3        29.91R
PARIS          CLEAR     47  46  95 SW8       29.87R
PEORIA         CLEAR     47  38  71 NW3       29.84R
PONTIAC        CLEAR     45  40  82 CALM      29.84R
RANTOUL        CLEAR     51  46  82 SW10      29.85R
SPRINGFIELD    CLEAR     52  45  77 SW7       29.85R
TAYLORVILLE    CLEAR     46  45  96 CALM      29.87R
$$

...REGIONAL REPORTS...


CITY           SKY/WX    TMP DP  RH WIND       PRES   REMARKS
CHICAGO O`HARE CLEAR     47  35  63 CALM      29.80R
KANKAKEE       CLEAR     44  38  78 CALM      29.83R
MOLINE         CLEAR     40  31  70 CALM      29.83R
MOUNT STERLING CLEAR     49  38  66 SW3       29.84R
MOUNT VERNON   MOCLDY    48  48 100 SW9       29.91R
PITTSFIELD     CLEAR     50  42  75 CALM      29.86R
QUINCY         CLEAR     50  38  63 SE6       29.84R
ROCKFORD       CLEAR     43  35  73 CALM      29.84R
$$


CITY           SKY/WX    TMP DP  RH WIND       PRES   REMARKS
BURLINGTON     CLEAR     49  33  54 N3        29.83R
CEDAR RAPIDS   CLEAR     40  35  83 CALM      29.84R
DES MOINES     PTCLDY    51  35  54 E5        29.85R
KIRKSVILLE     CLEAR     43  35  73 N6        29.86R
OTTUMWA        CLEAR     45  32  60 NE5       29.84R
ST LOUIS       CLEAR     56  47  71 S3        29.87R
$$


CITY           SKY/WX    TMP DP  RH WIND       PRES   REMARKS
TERRE HAUTE    CLEAR     50  45  83 SW8       29.89R
EVANSVILLE     CLOUDY    51  49  92 SW9       29.93R FOG
INDIANAPOLIS   CLOUDY    52  47  83 SW15      29.87R
LAFAYETTE      CLEAR     51  43  74 SW6       29.84R
MADISON        PTCLDY    36  32  85 CALM      29.82R
MILWAUKEE      CLEAR     44  35  70 CALM      29.80R
$$






USA.gov is the U.S. government's official web portal to all federal, state and local government web resources and services.